Home   Weather   Fremont   Past weeks

Flag for USA Past Weather in Fremont, California, USA — Yesterday and Last 2 Weeks

Now
61 °F

Overcast.


Feels Like: 61 °F
Forecast: 60 / 70 °F
Wind: 3 mph from Northwest

Location: Moffett Field

Current Time: Jun 27, 2017 at 5:16:24 am

Latest Report: Jun 27, 2017 at 3:56 am


Visibility: 10 mi

Pressure: 29.98 "Hg

Humidity: 83%

Dew Point: 56 °F

Location of FremontLocation

Past Weather in Fremont — Graph

°F

Fremont Temperature Yesterday

Maximum temperature yesterday: 73 °F (at 2:56 pm)
Minimum temperature yesterday: 60 °F (at 1:56 am)
Average temperature yesterday: 66 °F

High & Low Weather Summary for the Past Weeks

 TemperatureHumidityPressure
High99 °F (Jun 18, 2:56 pm)93% (Jun 21, 3:26 am)30.16 "Hg (Jun 21, 3:26 am)
Low52 °F (Jun 12, 4:13 am)25% (Jun 18, 12:56 pm)29.68 "Hg (Jun 22, 4:56 am)
Average68 °F69%29.93 "Hg
* Reported Jun 12 3:56 am — Jun 27 3:56 am, Fremont. Weather by CustomWeather, © 2017

Note: Actual official high and low records may vary slightly from our data, if they occured in-between our weather recording intervals... More about our weather records

Advertising

Fremont Weather History for the Previous 24 Hours

Scroll right to see more
 ConditionsComfort  
Time TempWeatherWind HumidityBarometerVisibility
3:56 am
Tue, Jun 27
61 °FOvercast.3 mph83%29.98 "Hg10 mi
2:56 am61 °FOvercast.5 mph81%29.99 "Hg10 mi
1:56 am60 °FOvercast.3 mph86%30.00 "Hg10 mi
12:56 am61 °FOvercast.6 mph83%30.01 "Hg10 mi
12:19 am61 °FPassing clouds.5 mph83%30.01 "Hg10 mi
11:56 pm
Mon, Jun 26
61 °FClear.7 mph81%30.02 "Hg10 mi
10:56 pm61 °FClear.7 mph81%30.02 "Hg10 mi
9:56 pm62 °FClear.12 mph80%30.02 "Hg10 mi
8:56 pm64 °FClear.10 mph75%30.00 "Hg10 mi
7:56 pm67 °FSunny.9 mph71%29.99 "Hg10 mi
6:56 pm70 °FSunny.17 mph66%29.99 "Hg10 mi
5:56 pm72 °FSunny.17 mph64%29.99 "Hg10 mi
4:56 pm71 °FSunny.21 mph63%30.00 "Hg10 mi
3:56 pm72 °FSunny.20 mph61%30.02 "Hg10 mi
2:56 pm73 °FSunny.18 mph57%30.03 "Hg10 mi
1:56 pm72 °FSunny.15 mph57%30.04 "Hg10 mi
12:56 pm71 °FSunny.13 mph59%30.05 "Hg10 mi
11:56 am70 °FSunny.12 mph61%30.06 "Hg10 mi
10:56 am69 °FPassing clouds.7 mph63%30.06 "Hg10 mi
9:56 am68 °FPassing clouds.8 mph63%30.05 "Hg10 mi
9:07 am66 °FScattered clouds.5 mph65%30.05 "Hg10 mi
8:56 am65 °FPartly sunny.No wind68%30.05 "Hg10 mi
7:56 am63 °FOvercast.3 mph73%30.05 "Hg10 mi
7:18 am62 °FPartly sunny.No wind75%30.04 "Hg10 mi
6:56 am62 °FScattered clouds.3 mph75%30.04 "Hg10 mi
5:56 am61 °FOvercast.5 mph78%30.04 "Hg10 mi
Weather by CustomWeather, © 2017

See weather overviewHow to use our weather pages